This is the latest recevied weather packets stored in our database for station/object VK7TM-1. If no packets are shown the sender has not sent any weather packets the latest 10 day(s).
| Time | Temp. | Humidity | Pressure | Rain* | Wind** | Luminosity | Snow |
|---|---|---|---|---|---|---|---|
| 1777954546 | 15° C | 68% | 1016.6 hPa | 0 mm | - | 73 W/m² | - |
| 1777954256 | 14.44° C | 67% | 1016.4 hPa | 0 mm | - | 353 W/m² | - |
| 1777953966 | 14.44° C | 68% | 1016.5 hPa | 0 mm | - | 344 W/m² | - |
| 1777953676 | 13.89° C | 70% | 1016.3 hPa | 0 mm | - | 382 W/m² | - |
| 1777953386 | 13.89° C | 70% | 1016.4 hPa | 0 mm | - | 407 W/m² | - |
| 1777953096 | 14.44° C | 71% | 1016.2 hPa | 0 mm | - | 84 W/m² | - |
| 1777952806 | 13.89° C | 70% | 1016.2 hPa | 0 mm | - | 397 W/m² | - |
| 1777952516 | 14.44° C | 71% | 1016.2 hPa | 0 mm | - | 377 W/m² | - |
| 1777952226 | 13.89° C | 71% | 1016.2 hPa | 0 mm | - | 387 W/m² | - |
| 1777951936 | 13.89° C | 72% | 1016.2 hPa | 0 mm | - | 389 W/m² | - |
| 1777951646 | 13.89° C | 75% | 1016.2 hPa | 0 mm | - | 397 W/m² | - |
| 1777951355 | 14.44° C | 72% | 1016.2 hPa | 0 mm | - | 145 W/m² | - |
| 1777951066 | 14.44° C | 71% | 1016.1 hPa | 0 mm | - | 141 W/m² | - |
| 1777950776 | 13.89° C | 73% | 1016 hPa | 0 mm | - | 429 W/m² | - |
| 1777950485 | 13.89° C | 75% | 1015.9 hPa | 0 mm | - | 471 W/m² | - |
| 1777950196 | 13.89° C | 75% | 1015.9 hPa | 0 mm | - | 210 W/m² | - |
| 1777949905 | 13.89° C | 74% | 1016 hPa | 0 mm | - | 417 W/m² | - |
| 1777949616 | 14.44° C | 74% | 1016 hPa | 0 mm | - | 259 W/m² | - |
| 1777949325 | 14.44° C | 75% | 1015.8 hPa | 0 mm | - | 161 W/m² | - |
| 1777949036 | 13.89° C | 78% | 1015.7 hPa | 0 mm | - | 431 W/m² | - |
| 1777948745 | 14.44° C | 75% | 1015.9 hPa | 0 mm | - | 206 W/m² | - |
| 1777948455 | 13.89° C | 76% | 1015.9 hPa | 0 mm | - | 388 W/m² | - |
| 1777948165 | 14.44° C | 77% | 1016 hPa | 0 mm | - | 182 W/m² | - |
| 1777947875 | 13.89° C | 76% | 1015.8 hPa | 0 mm | - | 507 W/m² | - |
| 1777947585 | 15° C | 76% | 1015.8 hPa | 0 mm | - | 150 W/m² | - |
* Rain latest hour (hover to see other rain measurements)
** Current wind speed in m/s (hover to see current wind gust speed)